Simultaneous Nadir Overpasses (SNOs) Predictions

Prediction of SNOs between LANDSAT-8 and NOAA-19 Satellite Orbit:

Table of predicted SNOs for the next 14.0 days since TLE Epoch: 11/11/2023
Index Date (LANDSAT-8) Time (LANDSAT-8) Lat,Lon (LANDSAT-8) SZA (LANDSAT-8 ) Date (NOAA-19) Time (NOAA-19) Lat,Lon (NOAA-19) SZA (NOAA-19 ) Distance(km) Time Diff (sec)
1 11/11/2023 17:12:38 80.92, -41.09 100.52 11/11/2023 17:12:59 80.91, -41.10 100.52 0.93 21
2 11/13/2023 22:46:25 -80.90, 55.23 78.94 11/13/2023 22:45:12 -80.90, 55.32 78.96 1.62 73
3 11/13/2023 23:35:51 80.91,-137.05 101.09 11/13/2023 23:36:16 80.91,-137.21 101.09 2.82 25
4 11/16/2023 05:09:37 -80.91, -40.51 78.35 11/16/2023 05:08:28 -80.90, -40.48 78.38 0.84 69
5 11/16/2023 05:59:03 80.91, 127.19 101.67 11/16/2023 05:59:31 80.91, 127.34 101.70 2.55 28
6 11/18/2023 11:32:49 -80.90,-136.39 77.83 11/18/2023 11:31:44 -80.90,-136.34 77.85 0.78 65
7 11/18/2023 12:22:15 80.91, 31.29 102.19 11/18/2023 12:22:47 80.91, 31.42 102.22 2.33 32
8 11/20/2023 17:56:01 -80.89, 127.59 77.35 11/20/2023 17:55:00 -80.90, 127.72 77.35 2.68 61
9 11/20/2023 18:45:26 80.91, -64.41 102.72 11/20/2023 18:46:02 80.91, -64.22 102.75 3.33 36
10 11/23/2023 00:19:11 -80.91, 32.11 76.83 11/23/2023 00:18:15 -80.90, 32.09 76.86 1.20 56



Historial Predications of SNOs between LANDSAT-8 and NOAA-19
